Wind_Speed
37 37 37 36 36 36 35 35 35 34 34 33 32 32 32 31 31 31 30 29 29 30 30 29 28 27 26 26 25 24 23 22 21 21 21 20 19 18 17 17 16 15 14
40 39 39 39 38 37 37 37 36 36 35 35 34 34 34 33 33 32 32 31 31 31 31 31 30 29 28 27 27 26 26 25 24 23 23 22 22 21 20 19 18 17 16
43 42 41 41 41 40 39 38 38 37 37 37 36 36 36 35 35 34 33 32 32 33 33 33 32 31 30 29 29 28 27 27 27 26 25 25 24 23 23 21 20 19 18
45 44 43 43 43 42 41 40 40 39 39 38 38 38 37 37 36 35 35 34 34 34 35 35 34 34 33 32 30 30 29 29 29 28 28 27 27 26 26 25 23 22 21
45 46 45 45 45 45 42 42 41 41 40 40 40 39 39 39 38 37 37 36 35 35 36 37 36 36 35 34 33 32 31 32 31 31 30 29 29 28 28 27 26 25 24
46 46 47 46 47 46 45 43 43 43 42 41 41 41 41 41 40 39 39 38 37 37 37 38 37 37 37 37 36 35 33 33 33 33 32 31 30 30 29 29 29 28 27
47 47 47 47 48 48 47 46 44 44 44 44 43 43 43 42 42 42 41 41 39 39 39 39 38 38 38 38 38 37 36 35 34 34 34 33 32 32 31 31 30 30 30
47 48 49 49 48 48 48 48 48 47 46 45 45 45 45 45 44 44 43 43 43 42 41 41 41 40 39 40 40 39 39 39 38 36 36 36 36 35 34 34 32 31 31
48 48 49 50 50 49 49 49 50 49 48 47 47 47 46 46 47 46 45 45 44 43 43 43 43 44 43 42 41 40 40 40 40 40 38 37 37 37 36 36 36 34 33
49 50 49 50 51 52 51 50 50 50 50 50 49 49 49 49 49 48 48 47 46 45 45 46 45 46 45 45 44 43 42 42 42 42 40 39 39 39 39 38 38 37 36
50 50 51 51 51 53 53 53 52 52 52 51 50 50 50 51 50 50 49 49 49 48 47 47 48 48 47 47 46 46 45 44 43 43 43 42 41 41 40 41 40 40 39
51 51 52 52 52 53 54 54 54 54 53 52 52 51 51 51 51 51 51 51 51 50 50 49 49 50 50 50 49 48 47 47 47 46 45 44 44 43 43 42 42 42 41
52 52 52 53 53 54 54 54 55 56 55 54 52 52 52 52 52 53 53 52 52 52 52 51 51 51 51 51 51 50 49 49 48 48 47 46 45 46 45 45 44 44 43
53 53 53 53 53 54 54 54 54 55 56 56 55 54 54 54 54 54 55 54 54 54 54 53 52 52 52 52 53 53 52 51 50 50 50 49 49 49 48 47 46 46 45
53 53 53 53 54 54 54 54 55 55 56 56 56 56 56 57 56 56 56 56 56 55 55 54 54 53 53 54 54 55 54 53 53 52 52 52 51 51 51 50 49 48 47
53 53 53 54 54 54 54 54 55 56 56 57 57 58 58 58 57 57 57 57 57 57 57 56 55 55 55 54 55 56 56 56 55 55 54 53 52 53 53 53 52 51 49
52 53 54 54 54 54 54 55 55 56 56 56 57 58 58 58 58 58 58 59 58 58 58 57 56 56 56 55 54 56 56 56 56 57 56 55 54 54 54 54 54 54 52
51 51 52 53 53 53 54 54 55 56 56 56 56 57 58 58 57 58 60 60 60 59 59 58 57 57 57 57 56 56 57 58 57 57 57 56 55 55 55 54 54 54 54
49 50 50 52 53 53 53 54 54 54 55 55 56 56 57 58 58 58 59 59 60 60 60 59 58 58 58 58 58 57 57 58 58 58 58 57 57 56 55 54 54 54 54
48 49 50 51 52 52 52 53 53 54 54 55 56 56 57 58 58 58 59 59 59 59 59 59 59 59 58 58 59 58 56 56 57 58 58 57 57 58 57 56 55 55 55
48 49 50 51 51 52 53 53 53 54 54 54 55 56 56 57 58 58 59 60 60 59 58 58 59 60 60 59 60 59 58 56 57 58 58 58 58 59 59 58 57 57 56
48 49 49 51 51 52 53 53 54 54 55 55 55 55 56 57 58 59 60 61 60 59 58 59 59 60 60 60 60 59 59 58 57 58 60 60 60 60 60 60 60 59 58
47 47 48 49 49 50 51 53 54 55 55 56 56 56 56 58 59 59 60 61 60 60 59 58 58 58 59 59 59 59 60 59 57 58 60 60 61 61 61 61 62 61 61
46 47 48 49 49 49 50 51 53 54 55 56 57 57 57 58 58 58 59 60 60 60 59 58 57 57 58 59 59 59 60 60 59 58 60 61 61 62 62 62 63 63 62
45 46 47 49 49 49 50 50 52 53 53 54 55 55 55 56 57 58 59 59 59 60 60 59 58 57 58 59 60 60 59 60 59 58 59 61 61 62 63 63 63 63 63
43 44 45 46 48 49 49 50 51 52 52 53 53 54 54 54 54 56 58 58 58 58 59 60 59 58 58 59 60 59 59 60 60 59 58 60 60 62 62 63 63 63 63
Wind_Direction
257 256 255 255 255 255 256 257 256 256 255 254 252 252 251 249 247 248 249 250 249 245 243 242 242 242 240 240 241 242 243 242 241 241 241 242 240 239 238 239 241 244 246
257 257 257 255 255 255 255 256 256 256 254 253 253 252 252 250 248 248 248 250 248 244 242 242 243 243 241 241 241 242 242 242 241 242 242 242 242 242 241 240 241 243 246
258 257 257 257 256 256 255 256 256 256 255 254 253 252 252 251 248 247 247 248 248 245 242 242 243 244 243 242 242 242 243 242 243 243 242 242 243 243 243 242 241 243 246
258 257 257 257 256 255 255 255 255 255 255 255 254 252 252 250 247 246 246 247 248 246 244 243 243 244 243 242 243 243 243 243 244 244 243 243 243 243 244 244 244 244 245
259 258 257 256 255 255 255 255 255 255 255 255 254 253 251 249 246 246 246 247 247 246 244 244 243 243 243 242 242 243 244 244 244 243 243 243 243 243 244 246 246 246 247
261 259 257 255 255 255 255 255 255 254 254 255 254 253 251 249 246 246 246 246 247 246 245 244 244 245 245 243 242 243 244 244 243 243 242 243 243 244 244 246 248 248 249
261 259 258 256 255 255 255 255 255 255 255 255 254 254 251 248 246 245 245 245 246 247 245 244 244 245 245 244 243 243 244 243 243 244 243 243 243 244 245 246 247 249 250
262 260 258 256 255 255 255 256 256 255 256 255 255 253 251 248 246 244 245 246 247 247 245 244 245 244 244 244 244 244 244 244 244 244 244 244 244 245 246 246 247 248 250
262 260 259 257 255 254 254 255 257 256 256 256 256 254 252 249 248 245 245 245 246 247 246 245 245 246 245 245 245 243 244 245 244 244 244 244 245 245 246 246 247 248 249
261 259 258 257 255 254 254 255 256 257 255 255 255 255 254 251 249 247 245 245 246 247 247 246 245 246 246 246 244 244 245 245 244 243 242 243 245 246 246 246 247 249 250
262 259 257 257 256 255 255 255 255 256 255 255 255 255 254 251 249 248 246 245 246 247 247 247 246 246 246 246 245 245 246 245 244 244 243 243 245 246 247 247 248 249 250
261 259 258 257 256 256 256 255 255 254 254 254 254 254 252 250 249 248 247 245 245 246 247 248 248 247 247 247 246 247 247 245 245 244 244 245 245 246 248 248 248 249 250
260 259 258 258 257 257 257 257 256 254 253 253 253 252 251 250 249 249 248 246 246 246 246 247 248 248 248 249 248 246 246 246 245 244 245 245 246 246 247 248 249 250 250
260 259 258 257 257 257 256 256 256 255 254 253 253 251 250 249 249 249 248 247 247 246 247 247 248 249 248 249 248 247 245 244 243 244 245 246 247 247 247 248 249 250 251
261 259 258 257 256 256 255 256 257 255 254 254 253 252 250 248 248 248 248 248 249 248 247 248 248 249 249 248 248 248 246 244 244 245 245 246 247 248 249 248 249 250 251
262 260 258 257 256 256 256 257 257 256 255 255 254 253 251 249 248 248 248 248 249 249 248 248 248 248 249 248 248 247 246 247 248 246 245 247 248 248 249 249 249 250 251
262 261 259 258 257 257 257 257 257 256 256 255 254 253 250 248 248 248 248 248 248 249 248 248 249 248 248 248 247 247 248 249 248 247 246 247 248 248 249 250 250 250 251
262 261 259 258 258 258 258 257 257 256 255 255 254 252 250 248 248 249 249 249 249 249 248 248 248 248 248 248 248 249 248 248 248 246 246 247 247 248 249 249 250 250 251
263 261 260 258 258 258 257 258 257 256 255 255 254 253 250 248 248 249 249 249 250 249 249 248 248 248 248 248 249 250 250 249 249 247 246 247 247 247 248 248 249 250 251
263 262 260 259 258 258 258 258 258 257 256 255 254 253 251 249 249 249 249 250 250 249 249 248 248 248 248 248 249 250 250 250 248 247 246 246 247 247 247 248 249 250 251
264 263 261 260 259 260 259 259 258 257 256 255 255 253 252 250 249 249 250 250 250 249 249 249 248 247 247 248 248 249 249 249 248 247 247 247 247 247 248 248 249 250 252
264 263 261 261 261 261 261 260 259 257 256 255 254 254 252 250 250 250 251 250 250 249 248 248 248 247 246 247 247 249 249 249 248 248 248 248 248 248 249 249 250 251 251
264 264 263 262 263 263 263 261 259 258 257 256 255 254 253 252 250 251 250 249 249 249 249 248 247 246 246 246 247 248 249 249 249 248 248 248 249 249 250 250 250 251 251
265 265 263 262 263 263 263 262 260 258 257 256 255 254 254 252 251 249 248 248 248 248 248 248 248 247 246 246 246 248 249 249 249 249 248 248 248 250 250 250 251 251 251
266 265 264 264 263 264 264 263 262 259 257 256 254 253 253 251 250 249 249 249 248 247 247 248 248 248 248 248 247 247 248 249 250 249 249 249 249 249 250 250 250 251 251
268 267 266 265 265 265 265 265 264 261 258 255 254 253 252 251 249 249 249 248 248 247 248 248 249 249 249 249 248 248 248 249 249 248 249 250 250 250 250 250 251 251 251
Height
5768 5769 5770 5772 5773 5774 5775 5776 5778 5779 5780 5782 5783 5784 5785 5787 5789 5791 5793 5794 5796 5797 5799 5801 5803 5804 5806 5808 5810 5811 5813 5814 5815 5817 5818 5819 5821 5822 5823 5824 5824 5825 5826
5758 5759 5761 5762 5764 5765 5766 5768 5769 5770 5772 5773 5775 5776 5777 5779 5781 5783 5785 5787 5789 5790 5792 5794 5796 5798 5800 5802 5804 5806 5807 5809 5810 5812 5813 5815 5816 5818 5819 5820 5821 5822 5822
5748 5749 5751 5752 5754 5756 5757 5758 5760 5761 5762 5764 5765 5767 5768 5770 5772 5774 5776 5779 5781 5783 5785 5787 5789 5791 5793 5795 5797 5799 5801 5803 5805 5806 5808 5810 5811 5813 5814 5815 5816 5817 5818
5737 5738 5740 5742 5743 5745 5747 5748 5750 5751 5753 5754 5756 5757 5759 5761 5763 5766 5768 5770 5773 5775 5777 5779 5781 5784 5786 5788 5790 5792 5794 5796 5798 5800 5802 5804 5806 5807 5809 5810 5811 5812 5813
5725 5726 5728 5730 5732 5734 5736 5738 5739 5741 5742 5744 5745 5747 5749 5751 5754 5757 5759 5762 5764 5766 5768 5771 5773 5775 5778 5780 5783 5785 5787 5789 5791 5793 5795 5797 5799 5801 5803 5804 5806 5807 5808
5714 5714 5716 5718 5720 5722 5725 5727 5728 5730 5732 5733 5735 5736 5738 5741 5743 5747 5749 5752 5755 5757 5759 5761 5764 5767 5769 5772 5774 5777 5779 5781 5783 5786 5788 5790 5793 5795 5796 5798 5800 5801 5803
5701 5702 5703 5705 5708 5710 5713 5715 5716 5718 5720 5722 5723 5725 5727 5730 5733 5736 5739 5742 5745 5747 5750 5752 5755 5757 5760 5762 5765 5768 5770 5773 5775 5778 5780 5783 5785 5787 5790 5791 5793 5794 5796
5688 5689 5690 5692 5695 5698 5700 5702 5704 5706 5708 5710 5712 5713 5716 5719 5722 5725 5728 5731 5734 5736 5739 5742 5745 5748 5750 5753 5756 5759 5761 5764 5767 5769 5772 5775 5777 5780 5782 5784 5786 5787 5789
5674 5675 5677 5679 5681 5684 5687 5690 5692 5694 5696 5698 5699 5701 5704 5707 5710 5713 5716 5719 5722 5726 5728 5731 5734 5737 5740 5742 5745 5748 5751 5754 5757 5760 5763 5766 5768 5771 5773 5775 5777 5779 5781
5661 5661 5662 5664 5667 5670 5673 5676 5679 5681 5683 5685 5687 5689 5691 5694 5698 5702 5705 5708 5711 5714 5717 5720 5723 5726 5729 5731 5734 5737 5740 5743 5746 5749 5753 5756 5759 5762 5764 5766 5768 5771 5773
5646 5647 5648 5650 5652 5655 5659 5662 5665 5667 5669 5671 5674 5676 5678 5681 5684 5688 5693 5696 5699 5702 5705 5708 5711 5714 5717 5720 5723 5726 5729 5731 5734 5738 5742 5746 5749 5752 5754 5757 5759 5761 5764
5631 5632 5633 5635 5638 5640 5643 5646 5649 5652 5655 5657 5660 5662 5665 5668 5671 5675 5679 5683 5686 5690 5693 5696 5699 5702 5705 5707 5711 5714 5716 5719 5722 5727 5731 5735 5738 5741 5744 5746 5749 5751 5754
5617 5617 5618 5620 5622 5625 5628 5630 5633 5636 5639 5642 5645 5648 5651 5654 5657 5661 5665 5669 5673 5677 5680 5683 5686 5689 5691 5694 5698 5701 5704 5707 5710 5715 5719 5723 5726 5730 5732 5735 5738 5741 5743
5602 5602 5603 5605 5606 5609 5611 5614 5617 5620 5623 5626 5629 5632 5636 5640 5643 5647 5650 5654 5659 5663 5667 5669 5672 5675 5678 5681 5684 5687 5691 5694 5698 5703 5707 5710 5713 5717 5720 5723 5726 5729 5732
5587 5587 5588 5589 5591 5593 5595 5598 5601 5603 5606 5609 5613 5616 5620 5624 5628 5632 5636 5639 5644 5648 5653 5656 5658 5661 5664 5667 5670 5674 5677 5681 5686 5690 5693 5697 5700 5704 5707 5710 5713 5717 5720
5572 5572 5573 5574 5576 5578 5580 5582 5585 5587 5590 5593 5596 5599 5603 5607 5612 5616 5620 5624 5628 5632 5637 5641 5644 5646 5649 5653 5656 5659 5664 5668 5671 5675 5679 5683 5686 5690 5694 5697 5700 5704 5707
5556 5557 5558 5559 5560 5562 5564 5566 5568 5571 5573 5576 5579 5582 5587 5591 5595 5599 5603 5607 5612 5616 5621 5626 5628 5631 5634 5638 5641 5645 5649 5652 5656 5660 5664 5668 5672 5676 5680 5683 5686 5690 5693
5541 5542 5543 5544 5545 5547 5549 5550 5552 5555 5557 5560 5563 5566 5570 5574 5578 5582 5586 5591 5595 5599 5604 5609 5613 5616 5619 5623 5626 5630 5634 5638 5642 5646 5649 5653 5657 5661 5665 5669 5672 5675 5679
5527 5527 5528 5529 5531 5532 5534 5535 5537 5539 5541 5544 5547 5550 5554 5558 5562 5566 5570 5574 5578 5582 5587 5592 5597 5600 5604 5607 5611 5615 5619 5623 5626 5631 5635 5639 5643 5646 5650 5654 5657 5661 5664
5513 5513 5514 5515 5516 5517 5518 5520 5521 5524 5526 5529 5531 5534 5538 5542 5546 5550 5553 5557 5561 5565 5570 5575 5580 5584 5588 5592 5595 5599 5603 5607 5611 5615 5619 5623 5627 5631 5636 5640 5644 5647 5650
5498 5499 5499 5500 5501 5502 5504 5505 5507 5509 5511 5514 5516 5519 5522 5526 5530 5533 5537 5541 5545 5549 5553 5558 5563 5567 5572 5576 5580 5583 5587 5591 5595 5599 5603 5608 5613 5617 5620 5624 5628 5631 5635
5483 5484 5485 5486 5487 5487 5488 5489 5491 5493 5496 5498 5501 5504 5507 5510 5513 5517 5521 5524 5528 5532 5537 5541 5546 5550 5555 5560 5564 5567 5571 5576 5581 5586 5588 5592 5596 5600 5604 5609 5612 5616 5619
5469 5469 5470 5471 5471 5472 5473 5474 5475 5477 5480 5482 5485 5488 5491 5494 5497 5501 5504 5508 5512 5516 5521 5525 5530 5534 5539 5544 5549 5553 5555 5559 5564 5568 5571 5576 5580 5584 5588 5592 5596 5600 5603
5454 5455 5455 5456 5456 5457 5458 5458 5459 5461 5463 5466 5469 5472 5475 5478 5480 5484 5488 5492 5496 5500 5505 5509 5515 5520 5522 5526 5531 5535 5538 5542 5547 5551 5555 5560 5564 5568 5571 5575 5579 5583 5586
5440 5440 5440 5441 5442 5442 5442 5443 5443 5445 5447 5450 5452 5455 5458 5461 5465 5468 5472 5476 5480 5484 5488 5493 5498 5502 5506 5510 5514 5518 5522 5526 5531 5535 5538 5543 5548 5551 5554 5558 5562 5565 5569
5425 5425 5425 5426 5426 5427 5427 5427 5427 5429 5432 5435 5437 5440 5442 5445 5448 5451 5455 5460 5464 5469 5472 5477 5481 5485 5489 5493 5497 5501 5506 5510 5514 5519 5523 5526 5530 5533 5538 5542 5545 5548 5552